Regional Weather Roundup
Issued by NWS Jackson, KY

Home | Current Version | Previous Version | Graphics & Text | Print | Product List | Glossary On
Versions: 1 2 3 4 5 6 7 8 9 10 11 12 13 14 15 16 17 18 19 20 21 22 23 24 25 26 27 28 29 30 31 32 33 34 35 36 37 38 39 40 41 42 43 44 45 46 47 48 49 50
000
ASUS43 KJKL 031210
RWRJKL

EAST KENTUCKY HOURLY WEATHER ROUNDUP
NATIONAL WEATHER SERVICE JACKSON KY
800 AM EDT MON AUG 03 2015

NOTE: "FAIR" INDICATES FEW OR NO CLOUDS BELOW 12,000 FEET WITH
NO SIGNIFICANT WEATHER AND/OR OBSTRUCTIONS TO VISIBILITY.

* THESE REPORTS ARE NOT UNDER NWS QUALITY CONTROL AND MAY NOT
  REPORT WEATHER SUCH AS PRECIPITATION AND FOG.

KYZ079-080-083-085-087-088-110-112-115-119-120-031300
...EASTERN KENTUCKY...

CITY           SKY/WX    TMP DP  RH WIND       PRES   REMARKS
JACKSON        SUNNY     66  63  90 CALM      29.99R
6HR MIN TEMP:  62; 6HR MAX TEMP:  70;

LONDON         SUNNY     65  60  84 CALM      29.98R
6HR MIN TEMP:  62; 6HR MAX TEMP:  67;

SOMERSET*      FOG       61  61 100 CALM      29.97R VSB<1/4
MONTICELLO*    HVY RAIN  64  64 100 CALM      29.99R
6HR MIN TEMP:  58; 6HR MAX TEMP:  64; 6HR PCP: TRACE;

WILLIAMSBURG*  MOSUNNY   61  61 100 CALM      29.99
MIDDLESBORO*   FOG       60  60 100 CALM      30.00R VSB 1
6HR MIN TEMP:  59; 6HR MAX TEMP:  62;

HAZARD APT*    SUNNY     63  63 100 CALM      29.99R
BLACK MTN*       N/A     64  55  72 SW1         N/A
PIKEVILLE APT* SUNNY     64  61  88 N6        30.00R
BIG SANDY*     MOSUNNY   65  63  91 CALM      30.00R
6HR MIN TEMP:  63; 6HR MAX TEMP:  68;

MOREHEAD APT*  CLOUDY    66  61  82 NE8G15    30.04R
$$

KYZ035-036-041-042-044-050-067-078-099-031300
...CENTRAL KENTUCKY...

CITY           SKY/WX    TMP DP  RH WIND       PRES   REMARKS
MT STERLING*   RAIN      66  61  82 NE12G25   30.04R
FLEMING/MASON* LGT RAIN  63  61  94 NE9G16    30.04R
DANVILLE*      SUNNY     64  63  94 S5        29.95R
RICHMOND*      PTSUNNY   64  61  88 CALM      29.94R
LEXINGTON      CLOUDY    66  59  78 NE26G36   30.02R
6HR MIN TEMP:  65; 6HR MAX TEMP:  68;

FRANKFORT      CLOUDY    67  58  72 NE21G28   29.98R
6HR MIN TEMP:  64; 6HR MAX TEMP:  68;

$$

KYZ091>093-OHZ055-061-077-WVZ005-015-034-035-042-031300
...SOUTHERN OHIO/WEST VIRGINIA...

CITY           SKY/WX    TMP DP  RH WIND       PRES   REMARKS
COVINGTON      CLOUDY    64  63  96 SE10G22   29.92F
COLUMBUS       CLOUDY    65  60  84 S17G26    29.84F
DAYTON         CLOUDY    65  63  93 S10       29.86S
WILMINGTON     LGT RAIN  62  60  93 SE15G28   29.84F
HUNTINGTON     MOSUNNY   66  62  87 N5        29.98R
CHARLESTON     PTSUNNY   63  61  93 SE3       29.99R FOG
PINEVILLE*     SUNNY     60  60 100 MISG      30.05R
BECKLEY        SUNNY     66  57  72 N5        30.03R
BLUEFIELD      SUNNY     69  55  60 W5        30.04R
$$

VAZ002-007-008-TNZ017-027-036-066-071-031300
...SOUTHWEST VIRGINIA/EAST TENNESSEE...

CITY           SKY/WX    TMP DP  RH WIND       PRES   REMARKS
WISE*          SUNNY     66  55  68 CALM      30.05R
ABINGDON*      MOSUNNY   68  60  74 CALM      30.01R
BRISTOL        MOSUNNY   65  61  87 CALM      29.99R
KNOXVILLE      PTSUNNY   68  66  93 CALM      29.96R
OAK RIDGE      MOSUNNY   66  62  87 CALM      29.98R
CROSSVILLE     MOSUNNY   62  59  90 CALM      30.01R
NASHVILLE      MOSUNNY   67  65  93 CALM      29.95R
$$

...KEY TO REMARKS...
VSB - VISIBILITY IN MILES
WCI - WIND CHILL INDEX
HX  - HEAT INDEX

$$



USA.gov is the U.S. government's official web portal to all federal, state and local government web resources and services.